Location: Unspecified
(0.0000°N, 0.0000°E)
Time: 09:04:19
(UTC+00:00)

Explorer 7 - All Passes

Search period start: 21 February 2018 00:00
Search period end: 03 March 2018 00:00
Orbit: 485 x 682 km, 50.3° (Epoch: 20 February)

Date Brightness Start Highest point End Pass type
(mag) Time Alt. Az. Time Alt. Az. Time Alt. Az.
21 Feb - 09:39:05 10° NW 09:43:27 66° SW 09:47:32 10° SSE daylight
21 Feb - 20:03:59 10° SE 20:05:01 11° SE 20:06:03 10° ESE visible
21 Feb - 21:41:15 10° SW 21:45:21 46° NW 21:49:42 10° NNE night (unlit)
22 Feb - 08:05:30 10° N 08:08:25 17° NE 08:11:13 10° E daylight
22 Feb - 09:45:02 10° WNW 09:48:52 29° SW 09:52:30 10° S daylight
22 Feb - 20:07:09 10° S 20:10:27 22° SE 20:13:54 10° ENE visible
22 Feb - 21:47:30 10° WSW 21:50:52 22° NW 21:54:22 10° N night (unlit)
23 Feb - 08:09:50 10° NNW 08:13:57 34° NE 08:17:50 10° ESE daylight
23 Feb - 09:51:56 10° W 09:54:18 14° SW 09:56:36 10° SSW daylight
23 Feb - 20:11:52 10° SSW 20:15:52 48° SE 20:20:08 10° NE visible
23 Feb - 21:55:27 10° WNW 21:56:26 11° NW 21:57:26 10° NW night (unlit)
24 Feb - 08:14:54 10° NNW 08:19:26 76° NE 08:23:41 10° SE daylight
24 Feb - 20:17:11 10° SW 20:21:19 74° NW 20:25:43 10° NNE visible
25 Feb - 06:42:51 10° NNE 06:44:18 11° NE 06:45:43 10° ENE daylight
25 Feb - 08:20:30 10° NW 08:24:52 48° SW 08:28:59 10° SSE daylight
25 Feb - 18:44:20 10° SSE 18:46:28 14° SE 18:48:39 10° E visible
25 Feb - 20:23:02 10° WSW 20:26:47 33° NW 20:30:46 10° NNE visible
26 Feb - 06:46:12 10° N 06:49:51 23° NE 06:53:22 10° ESE daylight
26 Feb - 08:26:42 10° WNW 08:30:17 23° SW 08:33:43 10° S daylight
26 Feb - 18:48:22 10° S 18:51:53 29° SE 18:55:35 10° ENE visible
26 Feb - 20:29:43 10° W 20:32:19 16° NW 20:35:02 10° NNW visible
27 Feb - 06:50:53 10° NNW 06:55:22 47° NE 06:59:36 10° SE daylight
27 Feb - 08:34:21 10° WSW 08:35:43 11° SW 08:37:05 10° SW daylight
27 Feb - 18:53:19 10° SSW 18:57:18 66° SE 19:01:32 10° NE visible
28 Feb - 06:56:09 10° NW 07:00:49 80° SW 07:05:12 10° SSE daylight
28 Feb - 18:58:50 10° SW 19:02:45 52° NW 19:06:55 10° NNE visible
01 Mar - 05:22:53 10° NNE 05:25:43 16° NE 05:28:29 10° E visible
01 Mar - 07:01:57 10° WNW 07:06:14 37° SW 07:10:19 10° SSE daylight
01 Mar - 17:25:12 10° S 17:27:54 18° SE 17:30:42 10° E daylight
01 Mar - 19:04:57 10° WSW 19:08:15 24° NW 19:11:42 10° N visible
02 Mar - 05:27:03 10° N 05:31:15 31° NE 05:35:16 10° ESE visible
02 Mar - 07:08:28 10° W 07:11:39 18° SW 07:14:45 10° S daylight
02 Mar - 17:29:40 10° SSW 17:33:19 38° SE 17:37:09 10° ENE daylight
02 Mar - 19:12:28 10° WNW 19:13:48 11° NW 19:15:09 10° NNW visible
